GPS II-1

operational
NORAD ID: 19802 Int'l Des: 1989-013 Owner: AFSD Country: US Constellation: GPS
MEOCIRCULAR

GPS II-1について

説明を読み込み中...

リアルタイム位置

3D地球を読み込み中...

次回通過

高度履歴

Altitude vs Time

uPlot chart will show altitude changes over time

軌道要素

1 19802U 89013A 25301.12072937 .00000064 00000-0 00000-0 0 9993
2 19802 54.8773 102.4553 0042740 243.4305 116.6218 1.85325497253979
Epoch: Oct 28, 2025 • Age: 80 hours

現在のステータス

高度 21743.3 km
速度 3.76 km/s
衛星直下点 44.51°N, 54.66°W
打ち上げ日 Feb 14, 1989
運用期間 36.7 years
タイプ navigation

技術仕様

分類 Payload
質量 776.00 kg
乾燥質量 776.00 kg
総質量 1667.00 kg
長さ 2.40 m
直径 1.80 m
スパン 5.30 m
形状 Box + 2 Pan
製造者 RWISB
バスタイプ GPS II
フェーズステータス In Orbit
所有者/国 AFSD/US

大規模コンステレーション

Loading constellations...